|
IDEFIX/ARIANE 42P - Orbit
|
San Francisco;
18:38:02
| Home | Info | Passes |
|
View from above orbital plane
|
View from above satellite
|
Ground track
|
The orbit data is extracted from the following two-line orbital elements,
1 27422U 02021B 13138.16741666 .00000208 00000-0 99081-4 0 2023
2 27422 098.3537 193.2527 0011444 335.2202 086.3333 14.28852572573728
| Epoch (UTC): | 18 May 2013 04:01:04 |
| Eccentricity: | 0.0011444 |
| inclination: | 98.3537° |
| perigee height: | 787 km |
| apogee height: | 804 km |
| right ascension of ascending node: | 193.2527° |
| argument of perigee: | 335.2202° |
| revolutions per day: | 14.28852572 |
| mean anomaly at epoch: | 86.3333° |
| orbit number at epoch: | 57372 |
The dashed part of the orbit path shows where the satellite is in the earth's shadow,
|
|